Weather History for Claremore, OK

Change the Weather History Date:

Thursday, February 20, 2014

  Actual Average (KTUL) Record (KTUL)
Temperature  
Mean Temperature 52 °F 44 °F  
Max Temperature 68 °F 55 °F 83 °F (1981)
Min Temperature 37 °F 33 °F 9 °F (1918)
Degree Days  
Heating Degree Days 12 21  
Month to date heating degree days 478  
Since 1 July heating degree days 2751  
Growing Degree Days 2 (Base 50)    
Moisture  
Dew Point 37 °F    
Average Humidity 57    
Maximum Humidity 88    
Minimum Humidity 34    
Precipitation  
Precipitation 0.00 in 0.07 in 1.94 in (1997)
Month to date precipitation 1.23  
Year to date precipitation 2.89  
Sea Level Pressure  
Sea Level Pressure 29.76 in    
Wind  
Wind Speed 15 mph (WSW)    
Max Wind Speed 32 mph    
Max Gust Speed 43 mph    
Visibility 10 miles    
Events Rain , Thunderstorm    
T = Trace of Precipitation, MM = Missing Value Source: NWS Daily Summary

Daily Weather History Graph

Daily Weather History Graph

Search for Another Location

Airport:

Trip Planner

Search our weather history database for the weather conditions in past years. The results will help you decide how hot, cold, wet, or windy it might be!

Date:

Astronomy

Feb. 20, 2014 Rise Set
Actual Time 7:03 AM CST 6:08 PM CST
Civil Twilight 6:37 AM CST 6:34 PM CST
Nautical Twilight 6:07 AM CST 7:04 PM CST
Astronomical Twilight 5:37 AM CST 7:34 PM CST
Moon 11:52 PM CST (2/20) 9:57 AM CST (2/20)
Length of Visible Light 11h 56m
Length of Day
11h 04m
Waning Gibbous, 70% of the Moon is Illuminated
Feb 20
Waning Gibbous
Feb 22
Last Quarter
Mar 1
New
Mar 8
First Quarter
Mar 16
Full

Hourly Weather History & Observations

Time (CST) Temp. Windchill Dew Point Humidity Pressure Visibility Wind Dir Wind Speed Gust Speed Precip Events Conditions
12:15 AM 59.0 °F - 53.6 °F 82% 29.59 in 10.0 mi SSE 9.2 mph - N/A   Mostly Cloudy
12:35 AM 59.0 °F - 53.6 °F 82% 29.58 in 10.0 mi SSE 9.2 mph 16.1 mph N/A Rain , Thunderstorm Light Thunderstorms and Rain
1:15 AM 59.0 °F - 55.4 °F 88% 29.56 in 10.0 mi SSE 10.4 mph - N/A   Mostly Cloudy
1:35 AM 60.8 °F - 55.4 °F 82% 29.55 in 10.0 mi SSE 11.5 mph - N/A   Overcast
1:55 AM 60.8 °F - 55.4 °F 82% 29.54 in 10.0 mi South 16.1 mph - N/A   Overcast
2:15 AM 62.6 °F - 55.4 °F 77% 29.53 in 10.0 mi South 16.1 mph 23.0 mph N/A   Overcast
2:35 AM 62.6 °F - 55.4 °F 77% 29.52 in 10.0 mi South 15.0 mph 21.9 mph N/A   Overcast
4:35 AM 62.6 °F - 55.4 °F 77% 29.46 in 10.0 mi South 18.4 mph 26.5 mph N/A   Mostly Cloudy
4:55 AM 62.6 °F - 57.2 °F 82% 29.45 in 10.0 mi South 21.9 mph 33.4 mph N/A   Mostly Cloudy
5:15 AM 62.6 °F - 57.2 °F 82% 29.45 in 10.0 mi South 20.7 mph 27.6 mph N/A   Mostly Cloudy
5:55 AM 62.6 °F - 57.2 °F 82% 29.46 in 10.0 mi South 19.6 mph 27.6 mph N/A   Mostly Cloudy
6:35 AM 62.6 °F - 57.2 °F 82% 29.45 in 10.0 mi South 19.6 mph 25.3 mph N/A   Mostly Cloudy
6:55 AM 62.6 °F - 57.2 °F 82% 29.44 in 10.0 mi South 18.4 mph 26.5 mph N/A   Overcast
7:35 AM 62.6 °F - 57.2 °F 82% 29.45 in 10.0 mi SSW 20.7 mph - N/A   Mostly Cloudy
7:55 AM 64.4 °F - 57.2 °F 77% 29.46 in 10.0 mi SSW 17.3 mph 26.5 mph N/A   Mostly Cloudy
8:35 AM 66.2 °F - 55.4 °F 68% 29.47 in 10.0 mi SSW 23.0 mph 34.5 mph N/A   Scattered Clouds
8:55 AM 68.0 °F - 55.4 °F 64% 29.48 in 10.0 mi SW 23.0 mph 33.4 mph N/A   Clear
9:15 AM 68.0 °F - 51.8 °F 56% 29.50 in 10.0 mi WSW 23.0 mph 36.8 mph N/A   Clear
9:35 AM 64.4 °F - 42.8 °F 45% 29.53 in 10.0 mi West 32.2 mph 38.0 mph N/A   Scattered Clouds
9:55 AM 62.6 °F - 37.4 °F 39% 29.57 in 7.0 mi WSW 32.2 mph 39.1 mph N/A   Mostly Cloudy
10:15 AM 55.4 °F - 37.4 °F 51% 29.61 in 10.0 mi WSW 27.6 mph 42.6 mph N/A   Scattered Clouds
10:35 AM 53.6 °F - 41.0 °F 62% 29.63 in 10.0 mi West 29.9 mph 40.3 mph N/A   Clear
12:55 PM 46.4 °F 38.3 °F 32.0 °F 57% 29.83 in 10.0 mi WNW 23.0 mph 33.4 mph N/A   Overcast
1:15 PM 46.4 °F 38.7 °F 32.0 °F 57% 29.85 in 10.0 mi NW 20.7 mph 28.8 mph N/A   Mostly Cloudy
1:55 PM 50.0 °F - 32.0 °F 50% 29.85 in 10.0 mi NNW 19.6 mph 27.6 mph N/A   Scattered Clouds
2:35 PM 50.0 °F - 32.0 °F 50% 29.88 in 10.0 mi NW 18.4 mph 28.8 mph N/A   Scattered Clouds
5:15 PM 51.8 °F - 26.6 °F 38% 29.93 in 10.0 mi NW 13.8 mph 20.7 mph N/A   Clear
5:35 PM 51.8 °F - 26.6 °F 38% 29.94 in 10.0 mi WNW 11.5 mph 16.1 mph N/A   Clear
5:55 PM 50.0 °F - 24.8 °F 37% 29.94 in 10.0 mi WNW 11.5 mph 17.3 mph N/A   Clear
6:15 PM 48.2 °F - 24.8 °F 40% 29.95 in 10.0 mi WNW 8.1 mph 17.3 mph N/A   Clear
6:35 PM 46.4 °F 41.5 °F 23.0 °F 40% 29.96 in 10.0 mi WNW 10.4 mph - N/A   Clear
6:55 PM 46.4 °F 41.1 °F 23.0 °F 40% 29.97 in 10.0 mi WNW 11.5 mph 17.3 mph N/A   Clear
7:15 PM 46.4 °F 41.1 °F 21.2 °F 37% 29.98 in 10.0 mi WNW 11.5 mph - N/A   Clear
7:35 PM 46.4 °F 41.5 °F 19.4 °F 34% 29.99 in 10.0 mi WNW 10.4 mph - N/A   Clear
7:55 PM 44.6 °F 39.7 °F 19.4 °F 37% 30.00 in 10.0 mi WNW 9.2 mph - N/A   Clear
8:15 PM 44.6 °F 39.7 °F 19.4 °F 37% 30.01 in 10.0 mi WNW 9.2 mph - N/A   Clear
8:35 PM 42.8 °F 38.0 °F 19.4 °F 39% 30.02 in 10.0 mi West 8.1 mph - N/A   Clear
8:55 PM 42.8 °F 38.0 °F 19.4 °F 39% 30.02 in 10.0 mi West 8.1 mph - N/A   Clear
9:15 PM 41.0 °F 35.8 °F 19.4 °F 42% 30.02 in 10.0 mi West 8.1 mph - N/A   Clear
9:35 PM 41.0 °F 36.4 °F 19.4 °F 42% 30.03 in 10.0 mi West 6.9 mph - N/A   Clear
9:55 PM 39.2 °F 34.2 °F 19.4 °F 45% 30.03 in 10.0 mi West 6.9 mph - N/A   Clear
10:15 PM 39.2 °F 34.2 °F 19.4 °F 45% 30.03 in 10.0 mi West 6.9 mph - N/A   Clear
10:35 PM 37.4 °F 32.1 °F 21.2 °F 52% 30.03 in 10.0 mi West 6.9 mph - N/A   Clear
10:55 PM 37.4 °F 32.8 °F 21.2 °F 52% 30.04 in 10.0 mi West 5.8 mph - N/A   Clear
11:15 PM 37.4 °F 32.1 °F 21.2 °F 52% 30.04 in 10.0 mi West 6.9 mph - N/A   Clear
11:35 PM 39.2 °F 33.6 °F 21.2 °F 49% 30.04 in 10.0 mi West 8.1 mph - N/A   Clear
11:55 PM 39.2 °F 33.0 °F 21.2 °F 49% 30.05 in 10.0 mi West 9.2 mph - N/A   Clear